Flight Track Log - Related Links

Times and Time Zones

All times are in EDT time to prevent confusion due to time zone crossing. See the AWI3680 flight status page for this flight to view local times or setup timezone preferences in your user account.

Time Position Orientation Groundspeed Altitude Reporting Facility
EDT Latitude Longitude Course Direction KTS MPH feet Rate Location/Type
Thu 06:50:40 PM 39.8500 -75.2833 37° Northeast 161 185 800  Level Philadelphia TRACON
Thu 06:51:40 PM 39.8167 -75.3333 229° Southwest 221 254 2,300 1,950 Climbing Philadelphia TRACON
Thu 06:52:40 PM 39.7667 -75.3500 194° South 225 259 4,700 2,231 Climbing Philadelphia TRACON
Thu 06:53:00 PM 39.8167 -74.8809 90° East  Level FlightAware Approximate
Thu 06:53:41 PM 39.7333 -75.3000 131° Southeast 243 280 6,800  Level Philadelphia TRACON
Thu 06:54:00 PM 39.8016 -74.7910 105° East  Level FlightAware Approximate
Thu 06:54:41 PM 39.7500 -75.2000 78° East 295 339 8,500  Level Philadelphia TRACON
Thu 06:55:00 PM 39.7836 -74.7016 105° East  Level FlightAware Approximate
Thu 06:56:00 PM 39.8387 -74.6447 37° Northeast  Level FlightAware Approximate
Thu 06:56:41 PM 39.7653 -74.9811 85° East 327 376 11,500  Level New York Center
Thu 06:57:41 PM 39.7783 -74.8522 82° East 342 394 12,400 1,250 Climbing New York Center
Thu 06:58:41 PM 39.7994 -74.7211 78° East 355 409 14,000 1,576 Climbing New York Center
Thu 06:59:39 PM 39.8753 -74.6333 42° Northeast 337 388 15,500 1,513 Climbing New York Center
Thu 07:00:40 PM 39.9431 -74.5342 48° Northeast 352 405 17,000 1,377 Climbing New York Center
Thu 07:01:41 PM 40.0108 -74.4350 48° Northeast 368 423 18,300 1,160 Climbing New York Center
Thu 07:02:39 PM 40.0847 -74.3331 47° Northeast 379 436 19,300 958 Climbing New York Center
Thu 07:03:40 PM 40.1567 -74.2281 48° Northeast 379 436 20,200 843 Climbing New York Center
Thu 07:04:40 PM 40.2525 -74.1567 30° Northeast 379 436 21,000 942 Climbing New York Center
Thu 07:05:41 PM 40.3522 -74.1017 23° Northeast 379 436 22,100 992 Climbing New York Center
Thu 07:06:41 PM 40.4578 -74.0469 22° Northeast 384 442 23,000 915 Climbing New York Center
Thu 07:07:39 PM 40.5594 -73.9889 23° Northeast 391 450 23,900 382 Climbing New York Center
Thu 07:09:18 PM 40.7319 -73.9000 21° North 389 448 24,000 38 Climbing Boston Center
Thu 07:10:18 PM 40.8269 -73.8225 32° Northeast 394 453 24,000  Level Boston Center
Thu 07:11:30 PM 40.9031 -73.7308 42° Northeast 405 466 24,000 -409 Level Boston Center
Thu 07:12:30 PM 41.0206 -73.6394 30° Northeast 405 466 23,100 -500 Descending Boston Center
Thu 07:13:30 PM 41.1275 -73.5864 20° North 400 460 23,000 -409 Descending Boston Center
Thu 07:14:42 PM 41.2319 -73.5633 North 388 447 22,200 -1,364 Descending Boston Center
Thu 07:15:42 PM 41.3569 -73.5600 North 383 441 20,000 -1,100 Descending Boston Center
Thu 07:16:42 PM 41.4592 -73.5564 North 372 428 20,000 -750 Level Boston Center
Thu 07:17:42 PM 41.5592 -73.5525 North 349 402 18,500 -1,450 Descending Boston Center
Thu 07:18:42 PM 41.6425 -73.5483 North 326 375 17,100 -1,500 Descending Boston Center
Thu 07:19:42 PM 41.7386 -73.5444 North 326 375 15,500 -1,500 Descending Boston Center
Thu 07:20:42 PM 41.8178 -73.5403 North 315 362 14,100 -1,400 Descending Boston Center
Thu 07:21:42 PM 41.8969 -73.5361 North 315 362 12,700 -1,420 Descending Boston Center
Thu 07:22:53 PM 42.0158 -73.5328 North 306 352 11,000 -850 Descending Boston Center
Thu 07:23:42 PM 42.0825 -73.5311 North 306 352 11,000  Level Boston Center
Thu 07:24:42 PM 42.1661 -73.5183 North 300 345 11,000 -600 Level Boston Center
Thu 07:25:42 PM 42.2431 -73.5394 349° North 293 337 9,800 -1,550 Descending Boston Center
Thu 07:26:42 PM 42.3092 -73.5967 327° Northwest 278 320 7,900 -1,650 Descending Boston Center
Thu 07:27:42 PM 42.3628 -73.6372 331° Northwest 278 320 6,500 -1,800 Descending Boston Center
Thu 07:28:42 PM 42.4350 -73.6975 328° Northwest 272 313 4,300 -1,900 Descending Boston Center
Thu 07:29:42 PM 42.4908 -73.7436 329° Northwest 262 302 2,700 -1,150 Descending Boston Center
Thu 07:30:42 PM 42.5508 -73.7900 330° Northwest 245 282 2,000 -350 Descending Boston Center
Thu 07:31:42 PM 42.5967 -73.7967 354° North 219 252 2,000 -174 Level Boston Center
Thu 07:33:00 PM 42.6714 -73.8039 356° North 164 189 1,600 -308 Descending Boston Center

Login

Don't have an account? Register now (free) for customized features, flight alerts, and more!